<?xml version="1.0" encoding="UTF-8" standalone="no" ?>
<gpx xmlns="http://www.topografix.com/GPX/1/1" xmlns:xsi="http://www.w3.org/2001/XMLSchema-instance" xsi:schemaLocation="http://www.topografix.com/GPX/1/1 http://www.topografix.com/GPX/1/1/gpx.xsd" version="1.1" creator="VisuGPX - https://www.visugpx.com">
  <metadata>
    <name>monsegur monflamquin</name>
    <desc><![CDATA[sssssssssssssssssssssssssssssssssssssssssssssssssssssssssssssssssssssssssssssssssssssssssss]]></desc>
  </metadata>
  <trk>
    <name><![CDATA[MonflanquinCalviac]]></name>
    <trkseg>
      <trkpt lat="44.53" lon="0.76865">
        <ele>148</ele>
        <time>2007-03-27T15:43:12Z</time>
      </trkpt>
      <trkpt lat="44.52974" lon="0.76876">
        <ele>144</ele>
        <time>2007-03-27T15:43:12Z</time>
      </trkpt>
      <trkpt lat="44.52967" lon="0.76895">
        <ele>142</ele>
        <time>2007-03-27T15:43:12Z</time>
      </trkpt>
      <trkpt lat="44.52964" lon="0.76908">
        <ele>141</ele>
        <time>2007-03-27T15:43:12Z</time>
      </trkpt>
      <trkpt lat="44.52934" lon="0.76922">
        <ele>138</ele>
        <time>2007-03-27T15:43:12Z</time>
      </trkpt>
      <trkpt lat="44.52903" lon="0.76927">
        <ele>136</ele>
        <time>2007-03-27T15:43:12Z</time>
      </trkpt>
      <trkpt lat="44.52857" lon="0.76936">
        <ele>134</ele>
        <time>2007-03-27T15:43:12Z</time>
      </trkpt>
      <trkpt lat="44.52816" lon="0.76938">
        <ele>132</ele>
        <time>2007-03-27T15:43:12Z</time>
      </trkpt>
      <trkpt lat="44.52782" lon="0.76928">
        <ele>131</ele>
        <time>2007-03-27T15:43:12Z</time>
      </trkpt>
      <trkpt lat="44.52739" lon="0.76907">
        <ele>128</ele>
        <time>2007-03-27T15:43:12Z</time>
      </trkpt>
      <trkpt lat="44.52702" lon="0.76894">
        <ele>125</ele>
        <time>2007-03-27T15:43:12Z</time>
      </trkpt>
      <trkpt lat="44.52665" lon="0.7689">
        <ele>124</ele>
        <time>2007-03-27T15:43:12Z</time>
      </trkpt>
      <trkpt lat="44.52608" lon="0.76888">
        <ele>121</ele>
        <time>2007-03-27T15:43:12Z</time>
      </trkpt>
      <trkpt lat="44.52557" lon="0.76893">
        <ele>122</ele>
        <time>2007-03-27T15:43:12Z</time>
      </trkpt>
      <trkpt lat="44.52535" lon="0.76894">
        <ele>121</ele>
        <time>2007-03-27T15:43:12Z</time>
      </trkpt>
      <trkpt lat="44.52507" lon="0.76879">
        <ele>120</ele>
        <time>2007-03-27T15:43:12Z</time>
      </trkpt>
      <trkpt lat="44.52473" lon="0.76861">
        <ele>117</ele>
        <time>2007-03-27T15:43:12Z</time>
      </trkpt>
      <trkpt lat="44.52434" lon="0.76829">
        <ele>114</ele>
        <time>2007-03-27T15:43:12Z</time>
      </trkpt>
      <trkpt lat="44.52395" lon="0.76811">
        <ele>112</ele>
        <time>2007-03-27T15:43:12Z</time>
      </trkpt>
      <trkpt lat="44.5237" lon="0.76812">
        <ele>112</ele>
        <time>2007-03-27T15:43:12Z</time>
      </trkpt>
      <trkpt lat="44.52329" lon="0.76821">
        <ele>111</ele>
        <time>2007-03-27T15:43:12Z</time>
      </trkpt>
      <trkpt lat="44.5228" lon="0.76832">
        <ele>109</ele>
        <time>2007-03-27T15:43:12Z</time>
      </trkpt>
      <trkpt lat="44.52238" lon="0.76836">
        <ele>106</ele>
        <time>2007-03-27T15:43:12Z</time>
      </trkpt>
      <trkpt lat="44.52168" lon="0.76832">
        <ele>104</ele>
        <time>2007-03-27T15:43:12Z</time>
      </trkpt>
      <trkpt lat="44.52148" lon="0.76783">
        <ele>104</ele>
        <time>2007-03-27T15:43:12Z</time>
      </trkpt>
      <trkpt lat="44.52121" lon="0.76746">
        <ele>102</ele>
        <time>2007-03-27T15:43:12Z</time>
      </trkpt>
      <trkpt lat="44.52099" lon="0.7672">
        <ele>101</ele>
        <time>2007-03-27T15:43:12Z</time>
      </trkpt>
      <trkpt lat="44.52078" lon="0.76718">
        <ele>100</ele>
        <time>2007-03-27T15:43:12Z</time>
      </trkpt>
      <trkpt lat="44.52046" lon="0.76704">
        <ele>98</ele>
        <time>2007-03-27T15:43:12Z</time>
      </trkpt>
      <trkpt lat="44.5203" lon="0.76691">
        <ele>97</ele>
        <time>2007-03-27T15:43:12Z</time>
      </trkpt>
      <trkpt lat="44.52035" lon="0.76647">
        <ele>99</ele>
        <time>2007-03-27T15:43:12Z</time>
      </trkpt>
      <trkpt lat="44.52052" lon="0.7653">
        <ele>102</ele>
        <time>2007-03-27T15:43:12Z</time>
      </trkpt>
      <trkpt lat="44.52067" lon="0.76487">
        <ele>103</ele>
        <time>2007-03-27T15:43:12Z</time>
      </trkpt>
      <trkpt lat="44.52048" lon="0.7647">
        <ele>103</ele>
        <time>2007-03-27T15:43:12Z</time>
      </trkpt>
      <trkpt lat="44.52014" lon="0.76435">
        <ele>104</ele>
        <time>2007-03-27T15:43:12Z</time>
      </trkpt>
      <trkpt lat="44.51966" lon="0.76367">
        <ele>104</ele>
        <time>2007-03-27T15:43:12Z</time>
      </trkpt>
      <trkpt lat="44.51925" lon="0.76313">
        <ele>103</ele>
        <time>2007-03-27T15:43:12Z</time>
      </trkpt>
      <trkpt lat="44.51902" lon="0.76287">
        <ele>103</ele>
        <time>2007-03-27T15:43:12Z</time>
      </trkpt>
      <trkpt lat="44.51877" lon="0.76263">
        <ele>102</ele>
        <time>2007-03-27T15:43:12Z</time>
      </trkpt>
      <trkpt lat="44.51856" lon="0.76248">
        <ele>101</ele>
        <time>2007-03-27T15:43:12Z</time>
      </trkpt>
      <trkpt lat="44.5183" lon="0.76236">
        <ele>99</ele>
        <time>2007-03-27T15:43:12Z</time>
      </trkpt>
      <trkpt lat="44.51806" lon="0.76235">
        <ele>98</ele>
        <time>2007-03-27T15:43:12Z</time>
      </trkpt>
      <trkpt lat="44.51775" lon="0.76239">
        <ele>97</ele>
        <time>2007-03-27T15:43:12Z</time>
      </trkpt>
      <trkpt lat="44.51723" lon="0.76247">
        <ele>98</ele>
        <time>2007-03-27T15:43:12Z</time>
      </trkpt>
      <trkpt lat="44.517" lon="0.76247">
        <ele>100</ele>
        <time>2007-03-27T15:43:12Z</time>
      </trkpt>
      <trkpt lat="44.51684" lon="0.76243">
        <ele>100</ele>
        <time>2007-03-27T15:43:12Z</time>
      </trkpt>
      <trkpt lat="44.5166" lon="0.76234">
        <ele>101</ele>
        <time>2007-03-27T15:43:12Z</time>
      </trkpt>
      <trkpt lat="44.51626" lon="0.76205">
        <ele>101</ele>
        <time>2007-03-27T15:43:12Z</time>
      </trkpt>
      <trkpt lat="44.51581" lon="0.76172">
        <ele>98</ele>
        <time>2007-03-27T15:43:12Z</time>
      </trkpt>
      <trkpt lat="44.5155" lon="0.76157">
        <ele>97</ele>
        <time>2007-03-27T15:43:12Z</time>
      </trkpt>
      <trkpt lat="44.51507" lon="0.76141">
        <ele>96</ele>
        <time>2007-03-27T15:43:12Z</time>
      </trkpt>
      <trkpt lat="44.51476" lon="0.76141">
        <ele>98</ele>
        <time>2007-03-27T15:43:12Z</time>
      </trkpt>
      <trkpt lat="44.51454" lon="0.76138">
        <ele>100</ele>
        <time>2007-03-27T15:43:12Z</time>
      </trkpt>
      <trkpt lat="44.51337" lon="0.76168">
        <ele>101</ele>
        <time>2007-03-27T15:43:12Z</time>
      </trkpt>
      <trkpt lat="44.51314" lon="0.76166">
        <ele>100</ele>
        <time>2007-03-27T15:43:12Z</time>
      </trkpt>
      <trkpt lat="44.51295" lon="0.76144">
        <ele>100</ele>
        <time>2007-03-27T15:43:12Z</time>
      </trkpt>
      <trkpt lat="44.51273" lon="0.7612">
        <ele>101</ele>
        <time>2007-03-27T15:43:12Z</time>
      </trkpt>
      <trkpt lat="44.51241" lon="0.7607">
        <ele>101</ele>
        <time>2007-03-27T15:43:12Z</time>
      </trkpt>
      <trkpt lat="44.51219" lon="0.76041">
        <ele>100</ele>
        <time>2007-03-27T15:43:12Z</time>
      </trkpt>
      <trkpt lat="44.51208" lon="0.76029">
        <ele>100</ele>
        <time>2007-03-27T15:43:12Z</time>
      </trkpt>
      <trkpt lat="44.51198" lon="0.76031">
        <ele>99</ele>
        <time>2007-03-27T15:43:12Z</time>
      </trkpt>
      <trkpt lat="44.5118" lon="0.76039">
        <ele>98</ele>
        <time>2007-03-27T15:43:12Z</time>
      </trkpt>
      <trkpt lat="44.51162" lon="0.76061">
        <ele>97</ele>
        <time>2007-03-27T15:43:12Z</time>
      </trkpt>
      <trkpt lat="44.51152" lon="0.7604">
        <ele>97</ele>
        <time>2007-03-27T15:43:12Z</time>
      </trkpt>
      <trkpt lat="44.51131" lon="0.76023">
        <ele>97</ele>
        <time>2007-03-27T15:43:12Z</time>
      </trkpt>
      <trkpt lat="44.51109" lon="0.76006">
        <ele>97</ele>
        <time>2007-03-27T15:43:12Z</time>
      </trkpt>
      <trkpt lat="44.51087" lon="0.7599">
        <ele>95</ele>
        <time>2007-03-27T15:43:12Z</time>
      </trkpt>
      <trkpt lat="44.51079" lon="0.75977">
        <ele>94</ele>
        <time>2007-03-27T15:43:12Z</time>
      </trkpt>
      <trkpt lat="44.51058" lon="0.75978">
        <ele>93</ele>
        <time>2007-03-27T15:43:12Z</time>
      </trkpt>
      <trkpt lat="44.51024" lon="0.7598">
        <ele>89</ele>
        <time>2007-03-27T15:43:12Z</time>
      </trkpt>
      <trkpt lat="44.51001" lon="0.75981">
        <ele>87</ele>
        <time>2007-03-27T15:43:12Z</time>
      </trkpt>
      <trkpt lat="44.50969" lon="0.75968">
        <ele>81</ele>
        <time>2007-03-27T15:43:12Z</time>
      </trkpt>
      <trkpt lat="44.50928" lon="0.75955">
        <ele>78</ele>
        <time>2007-03-27T15:43:12Z</time>
      </trkpt>
      <trkpt lat="44.50908" lon="0.75946">
        <ele>79</ele>
        <time>2007-03-27T15:43:12Z</time>
      </trkpt>
      <trkpt lat="44.5089" lon="0.75962">
        <ele>79</ele>
        <time>2007-03-27T15:43:12Z</time>
      </trkpt>
      <trkpt lat="44.50864" lon="0.75983">
        <ele>77</ele>
        <time>2007-03-27T15:43:12Z</time>
      </trkpt>
      <trkpt lat="44.50838" lon="0.76003">
        <ele>76</ele>
        <time>2007-03-27T15:43:12Z</time>
      </trkpt>
      <trkpt lat="44.50824" lon="0.76016">
        <ele>75</ele>
        <time>2007-03-27T15:43:12Z</time>
      </trkpt>
      <trkpt lat="44.50819" lon="0.76032">
        <ele>74</ele>
        <time>2007-03-27T15:43:12Z</time>
      </trkpt>
      <trkpt lat="44.50816" lon="0.76087">
        <ele>73</ele>
        <time>2007-03-27T15:43:12Z</time>
      </trkpt>
      <trkpt lat="44.50814" lon="0.76114">
        <ele>73</ele>
        <time>2007-03-27T15:43:12Z</time>
      </trkpt>
      <trkpt lat="44.50816" lon="0.76146">
        <ele>72</ele>
        <time>2007-03-27T15:43:12Z</time>
      </trkpt>
      <trkpt lat="44.50818" lon="0.76214">
        <ele>73</ele>
        <time>2007-03-27T15:43:12Z</time>
      </trkpt>
      <trkpt lat="44.50815" lon="0.7628">
        <ele>74</ele>
        <time>2007-03-27T15:43:12Z</time>
      </trkpt>
      <trkpt lat="44.50805" lon="0.76324">
        <ele>74</ele>
        <time>2007-03-27T15:43:12Z</time>
      </trkpt>
      <trkpt lat="44.50794" lon="0.76372">
        <ele>75</ele>
        <time>2007-03-27T15:43:12Z</time>
      </trkpt>
      <trkpt lat="44.50786" lon="0.76411">
        <ele>76</ele>
        <time>2007-03-27T15:43:12Z</time>
      </trkpt>
      <trkpt lat="44.50786" lon="0.76433">
        <ele>76</ele>
        <time>2007-03-27T15:43:12Z</time>
      </trkpt>
      <trkpt lat="44.50813" lon="0.76433">
        <ele>77</ele>
        <time>2007-03-27T15:43:12Z</time>
      </trkpt>
      <trkpt lat="44.50978" lon="0.76486">
        <ele>77</ele>
        <time>2007-03-27T15:43:12Z</time>
      </trkpt>
      <trkpt lat="44.51048" lon="0.76509">
        <ele>78</ele>
        <time>2007-03-27T15:43:12Z</time>
      </trkpt>
      <trkpt lat="44.51115" lon="0.76559">
        <ele>77</ele>
        <time>2007-03-27T15:43:12Z</time>
      </trkpt>
      <trkpt lat="44.51138" lon="0.76587">
        <ele>78</ele>
        <time>2007-03-27T15:43:12Z</time>
      </trkpt>
      <trkpt lat="44.51155" lon="0.76612">
        <ele>79</ele>
        <time>2007-03-27T15:43:12Z</time>
      </trkpt>
      <trkpt lat="44.51208" lon="0.76638">
        <ele>86</ele>
        <time>2007-03-27T15:43:12Z</time>
      </trkpt>
      <trkpt lat="44.51255" lon="0.76659">
        <ele>84</ele>
        <time>2007-03-27T15:43:12Z</time>
      </trkpt>
      <trkpt lat="44.51303" lon="0.76689">
        <ele>83</ele>
        <time>2007-03-27T15:43:12Z</time>
      </trkpt>
      <trkpt lat="44.51336" lon="0.76712">
        <ele>82</ele>
        <time>2007-03-27T15:43:12Z</time>
      </trkpt>
      <trkpt lat="44.51375" lon="0.76728">
        <ele>80</ele>
        <time>2007-03-27T15:43:12Z</time>
      </trkpt>
      <trkpt lat="44.51422" lon="0.76749">
        <ele>81</ele>
        <time>2007-03-27T15:43:12Z</time>
      </trkpt>
      <trkpt lat="44.5146" lon="0.76746">
        <ele>79</ele>
        <time>2007-03-27T15:43:12Z</time>
      </trkpt>
      <trkpt lat="44.51461" lon="0.76781">
        <ele>81</ele>
        <time>2007-03-27T15:43:12Z</time>
      </trkpt>
      <trkpt lat="44.5144" lon="0.7683">
        <ele>89</ele>
        <time>2007-03-27T15:43:12Z</time>
      </trkpt>
      <trkpt lat="44.51411" lon="0.7689">
        <ele>91</ele>
        <time>2007-03-27T15:43:12Z</time>
      </trkpt>
      <trkpt lat="44.51383" lon="0.76941">
        <ele>92</ele>
        <time>2007-03-27T15:43:12Z</time>
      </trkpt>
      <trkpt lat="44.51373" lon="0.76981">
        <ele>92</ele>
        <time>2007-03-27T15:43:12Z</time>
      </trkpt>
      <trkpt lat="44.51354" lon="0.77103">
        <ele>92</ele>
        <time>2007-03-27T15:43:12Z</time>
      </trkpt>
      <trkpt lat="44.51333" lon="0.77252">
        <ele>100</ele>
        <time>2007-03-27T15:43:12Z</time>
      </trkpt>
      <trkpt lat="44.51308" lon="0.77387">
        <ele>101</ele>
        <time>2007-03-27T15:43:12Z</time>
      </trkpt>
      <trkpt lat="44.51293" lon="0.77437">
        <ele>101</ele>
        <time>2007-03-27T15:43:12Z</time>
      </trkpt>
      <trkpt lat="44.51276" lon="0.77438">
        <ele>101</ele>
        <time>2007-03-27T15:43:12Z</time>
      </trkpt>
      <trkpt lat="44.51287" lon="0.77482">
        <ele>102</ele>
        <time>2007-03-27T15:43:12Z</time>
      </trkpt>
      <trkpt lat="44.51306" lon="0.77558">
        <ele>104</ele>
        <time>2007-03-27T15:43:12Z</time>
      </trkpt>
      <trkpt lat="44.51332" lon="0.77641">
        <ele>105</ele>
        <time>2007-03-27T15:43:12Z</time>
      </trkpt>
      <trkpt lat="44.51362" lon="0.7774">
        <ele>105</ele>
        <time>2007-03-27T15:43:12Z</time>
      </trkpt>
      <trkpt lat="44.51382" lon="0.77809">
        <ele>104</ele>
        <time>2007-03-27T15:43:12Z</time>
      </trkpt>
      <trkpt lat="44.51453" lon="0.77779">
        <ele>101</ele>
        <time>2007-03-27T15:43:12Z</time>
      </trkpt>
      <trkpt lat="44.51539" lon="0.77748">
        <ele>100</ele>
        <time>2007-03-27T15:43:12Z</time>
      </trkpt>
      <trkpt lat="44.51605" lon="0.77721">
        <ele>100</ele>
        <time>2007-03-27T15:43:12Z</time>
      </trkpt>
      <trkpt lat="44.51643" lon="0.77701">
        <ele>100</ele>
        <time>2007-03-27T15:43:12Z</time>
      </trkpt>
      <trkpt lat="44.51687" lon="0.77665">
        <ele>99</ele>
        <time>2007-03-27T15:43:12Z</time>
      </trkpt>
      <trkpt lat="44.51735" lon="0.77617">
        <ele>96</ele>
        <time>2007-03-27T15:43:12Z</time>
      </trkpt>
      <trkpt lat="44.51763" lon="0.77585">
        <ele>94</ele>
        <time>2007-03-27T15:43:12Z</time>
      </trkpt>
      <trkpt lat="44.51791" lon="0.77545">
        <ele>92</ele>
        <time>2007-03-27T15:43:12Z</time>
      </trkpt>
      <trkpt lat="44.51804" lon="0.77522">
        <ele>91</ele>
        <time>2007-03-27T15:43:12Z</time>
      </trkpt>
      <trkpt lat="44.51833" lon="0.77455">
        <ele>90</ele>
        <time>2007-03-27T15:43:12Z</time>
      </trkpt>
      <trkpt lat="44.51853" lon="0.77412">
        <ele>90</ele>
        <time>2007-03-27T15:43:12Z</time>
      </trkpt>
      <trkpt lat="44.51876" lon="0.77465">
        <ele>90</ele>
        <time>2007-03-27T15:43:12Z</time>
      </trkpt>
      <trkpt lat="44.51888" lon="0.77504">
        <ele>90</ele>
        <time>2007-03-27T15:43:12Z</time>
      </trkpt>
      <trkpt lat="44.51898" lon="0.77546">
        <ele>90</ele>
        <time>2007-03-27T15:43:12Z</time>
      </trkpt>
      <trkpt lat="44.51903" lon="0.77576">
        <ele>90</ele>
        <time>2007-03-27T15:43:12Z</time>
      </trkpt>
      <trkpt lat="44.51903" lon="0.77612">
        <ele>90</ele>
        <time>2007-03-27T15:43:12Z</time>
      </trkpt>
      <trkpt lat="44.51953" lon="0.77612">
        <ele>91</ele>
        <time>2007-03-27T15:43:12Z</time>
      </trkpt>
      <trkpt lat="44.51957" lon="0.77681">
        <ele>91</ele>
        <time>2007-03-27T15:43:12Z</time>
      </trkpt>
      <trkpt lat="44.52067" lon="0.77683">
        <ele>98</ele>
        <time>2007-03-27T15:43:12Z</time>
      </trkpt>
      <trkpt lat="44.52071" lon="0.77584">
        <ele>96</ele>
        <time>2007-03-27T15:43:12Z</time>
      </trkpt>
      <trkpt lat="44.52412" lon="0.77576">
        <ele>100</ele>
        <time>2007-03-27T15:43:12Z</time>
      </trkpt>
      <trkpt lat="44.5249" lon="0.77575">
        <ele>103</ele>
        <time>2007-03-27T15:43:12Z</time>
      </trkpt>
      <trkpt lat="44.52557" lon="0.77578">
        <ele>107</ele>
        <time>2007-03-27T15:43:12Z</time>
      </trkpt>
      <trkpt lat="44.52603" lon="0.77577">
        <ele>108</ele>
        <time>2007-03-27T15:43:12Z</time>
      </trkpt>
      <trkpt lat="44.5263" lon="0.77571">
        <ele>108</ele>
        <time>2007-03-27T15:43:12Z</time>
      </trkpt>
      <trkpt lat="44.52672" lon="0.77559">
        <ele>109</ele>
        <time>2007-03-27T15:43:12Z</time>
      </trkpt>
      <trkpt lat="44.5269" lon="0.77545">
        <ele>110</ele>
        <time>2007-03-27T15:43:12Z</time>
      </trkpt>
      <trkpt lat="44.52704" lon="0.77532">
        <ele>111</ele>
        <time>2007-03-27T15:43:12Z</time>
      </trkpt>
      <trkpt lat="44.52718" lon="0.77512">
        <ele>111</ele>
        <time>2007-03-27T15:43:12Z</time>
      </trkpt>
      <trkpt lat="44.52722" lon="0.77492">
        <ele>111</ele>
        <time>2007-03-27T15:43:12Z</time>
      </trkpt>
      <trkpt lat="44.52757" lon="0.77466">
        <ele>113</ele>
        <time>2007-03-27T15:43:12Z</time>
      </trkpt>
      <trkpt lat="44.52773" lon="0.77437">
        <ele>115</ele>
        <time>2007-03-27T15:43:12Z</time>
      </trkpt>
      <trkpt lat="44.52801" lon="0.77383">
        <ele>118</ele>
        <time>2007-03-27T15:43:12Z</time>
      </trkpt>
      <trkpt lat="44.52831" lon="0.77371">
        <ele>121</ele>
        <time>2007-03-27T15:43:12Z</time>
      </trkpt>
      <trkpt lat="44.52862" lon="0.77361">
        <ele>123</ele>
        <time>2007-03-27T15:43:12Z</time>
      </trkpt>
      <trkpt lat="44.52882" lon="0.77343">
        <ele>124</ele>
        <time>2007-03-27T15:43:12Z</time>
      </trkpt>
      <trkpt lat="44.52893" lon="0.77327">
        <ele>123</ele>
        <time>2007-03-27T15:43:12Z</time>
      </trkpt>
      <trkpt lat="44.52903" lon="0.77309">
        <ele>123</ele>
        <time>2007-03-27T15:43:12Z</time>
      </trkpt>
      <trkpt lat="44.52913" lon="0.77265">
        <ele>121</ele>
        <time>2007-03-27T15:43:12Z</time>
      </trkpt>
      <trkpt lat="44.52916" lon="0.77227">
        <ele>120</ele>
        <time>2007-03-27T15:43:12Z</time>
      </trkpt>
      <trkpt lat="44.52926" lon="0.77189">
        <ele>120</ele>
        <time>2007-03-27T15:43:12Z</time>
      </trkpt>
      <trkpt lat="44.52931" lon="0.77172">
        <ele>120</ele>
        <time>2007-03-27T15:43:12Z</time>
      </trkpt>
      <trkpt lat="44.52951" lon="0.77132">
        <ele>124</ele>
        <time>2007-03-27T15:43:12Z</time>
      </trkpt>
      <trkpt lat="44.5299" lon="0.77063">
        <ele>135</ele>
        <time>2007-03-27T15:43:12Z</time>
      </trkpt>
      <trkpt lat="44.53008" lon="0.77049">
        <ele>138</ele>
        <time>2007-03-27T15:43:12Z</time>
      </trkpt>
      <trkpt lat="44.53025" lon="0.7704">
        <ele>141</ele>
        <time>2007-03-27T15:43:12Z</time>
      </trkpt>
      <trkpt lat="44.53017" lon="0.76991">
        <ele>144</ele>
        <time>2007-03-27T15:43:12Z</time>
      </trkpt>
      <trkpt lat="44.53015" lon="0.76948">
        <ele>146</ele>
        <time>2007-03-27T15:43:12Z</time>
      </trkpt>
      <trkpt lat="44.53015" lon="0.76916">
        <ele>148</ele>
        <time>2007-03-27T15:43:12Z</time>
      </trkpt>
      <trkpt lat="44.53009" lon="0.76905">
        <ele>148</ele>
        <time>2007-03-27T15:43:12Z</time>
      </trkpt>
      <trkpt lat="44.52997" lon="0.76903">
        <ele>146</ele>
        <time>2007-03-27T15:43:12Z</time>
      </trkpt>
      <trkpt lat="44.52997" lon="0.7688">
        <ele>147</ele>
        <time>2007-03-27T15:43:12Z</time>
      </trkpt>
      <trkpt lat="44.53" lon="0.76865">
        <ele>148</ele>
        <time>2007-03-27T15:43:12Z</time>
      </trkpt>
    </trkseg>
  </trk>
</gpx>